Hourly Weather Bolshie Nivy

Today, 15 June, Tuesday

Time Temperature Precipitation Wind Pressure Humidity
00:00 +13°C° 0 mm 0 mps 742 mmHg 89%
01:00 +12°C° 0 mm 0 mps 741 mmHg 91%
02:00 +12°C° 0 mm 0 mps 741 mmHg 90%
03:00 +13°C° 0 mm 0 mps 741 mmHg 87%
04:00 +14°C° 0 mm 0 mps 741 mmHg 84%
05:00 +15°C° 0 mm 1 mps 741 mmHg 81%
06:00 +18°C° 0 mm 1 mps 741 mmHg 73%
07:00 +19°C° 0 mm 2 mps 741 mmHg 65%
08:00 +21°C° 0 mm 2 mps 741 mmHg 57%
09:00 +23°C° 0 mm 2 mps 740 mmHg 54%
10:00 +24°C° 0 mm 3 mps 740 mmHg 50%
11:00 +25°C° 0 mm 3 mps 740 mmHg 46%
12:00 +25°C° 0 mm 3 mps 739 mmHg 46%
13:00 +25°C° 0 mm 3 mps 739 mmHg 47%
14:00 +25°C° 0 mm 4 mps 739 mmHg 47%
15:00 +25°C° 0 mm 3 mps 739 mmHg 47%
16:00 +25°C° 0 mm 3 mps 738 mmHg 46%
17:00 +25°C° 0 mm 3 mps 738 mmHg 46%
18:00 +22°C° 0 mm 3 mps 738 mmHg 57%
19:00 +20°C° 0 mm 2 mps 738 mmHg 67%
20:00 +18°C° 0 mm 2 mps 738 mmHg 78%
21:00 +17°C° 0 mm 2 mps 738 mmHg 84%
22:00 +16°C° 0 mm 2 mps 738 mmHg 90%
23:00 +15°C° 0 mm 1 mps 738 mmHg 96%

Tomorrow, 16 June, Wednesday

Time Temperature Precipitation Wind Pressure Humidity
00:00 +14°C° 0 mm 2 mps 739 mmHg 96%
01:00 +14°C° 0 mm 2 mps 739 mmHg 95%
02:00 +14°C° 0 mm 2 mps 739 mmHg 95%
03:00 +14°C° 0 mm 2 mps 739 mmHg 92%
04:00 +14°C° 0 mm 2 mps 740 mmHg 88%
05:00 +13°C° 0 mm 2 mps 740 mmHg 85%
06:00 +15°C° 0 mm 2 mps 740 mmHg 75%
07:00 +17°C° 0 mm 2 mps 741 mmHg 65%
08:00 +18°C° 0 mm 3 mps 741 mmHg 55%
09:00 +20°C° 0 mm 3 mps 741 mmHg 49%
10:00 +21°C° 0 mm 3 mps 742 mmHg 43%
11:00 +22°C° 0 mm 3 mps 742 mmHg 37%
12:00 +22°C° 0 mm 3 mps 742 mmHg 35%
13:00 +22°C° 0 mm 3 mps 742 mmHg 34%
14:00 +24°C° 0 mm 3 mps 742 mmHg 32%
15:00 +22°C° 0 mm 3 mps 743 mmHg 34%
16:00 +22°C° 0 mm 3 mps 743 mmHg 36%
17:00 +22°C° 0 mm 3 mps 743 mmHg 38%
18:00 +19°C° 0 mm 2 mps 743 mmHg 47%
19:00 +17°C° 0 mm 2 mps 744 mmHg 56%
20:00 +15°C° 0 mm 2 mps 744 mmHg 65%
21:00 +14°C° 0 mm 1 mps 744 mmHg 66%
22:00 +13°C° 0 mm 1 mps 745 mmHg 67%
23:00 +12°C° 0 mm 1 mps 745 mmHg 68%

Day after tomorrow, 17 June, Thursday

Time Temperature Precipitation Wind Pressure Humidity
00:00 +12°C° 0 mm 1 mps 745 mmHg 69%
01:00 +10°C° 0 mm 0 mps 746 mmHg 70%
02:00 +10°C° 0 mm 0 mps 746 mmHg 71%
03:00 +11°C° 0 mm 0 mps 746 mmHg 70%
04:00 +12°C° 0 mm 0 mps 747 mmHg 69%
05:00 +13°C° 0 mm 0 mps 747 mmHg 68%
06:00 +16°C° 0 mm 1 mps 747 mmHg 60%
07:00 +19°C° 0 mm 1 mps 748 mmHg 53%
08:00 +21°C° 0 mm 1 mps 748 mmHg 46%
09:00 +23°C° 0 mm 1 mps 748 mmHg 43%
10:00 +24°C° 0 mm 1 mps 748 mmHg 39%
11:00 +25°C° 0 mm 1 mps 748 mmHg 36%
12:00 +25°C° 0 mm 2 mps 748 mmHg 35%
13:00 +26°C° 0 mm 2 mps 748 mmHg 34%
14:00 +26°C° 0 mm 2 mps 748 mmHg 34%
15:00 +26°C° 0 mm 2 mps 748 mmHg 36%
16:00 +26°C° 0 mm 2 mps 748 mmHg 39%
17:00 +26°C° 0 mm 2 mps 748 mmHg 41%
18:00 +24°C° 0 mm 2 mps 748 mmHg 50%
19:00 +22°C° 0 mm 1 mps 748 mmHg 60%
20:00 +20°C° 0 mm 1 mps 748 mmHg 69%
21:00 +19°C° 0 mm 1 mps 748 mmHg 71%
22:00 +16°C° 0 mm 0 mps 749 mmHg 73%
23:00 +14°C° 0 mm 0 mps 749 mmHg 75%

18 June, Friday

Time Temperature Precipitation Wind Pressure Humidity
00:00 +14°C° 0 mm 0 mps 749 mmHg 77%
01:00 +15°C° 0 mm 1 mps 749 mmHg 78%
02:00 +14°C° 0 mm 1 mps 749 mmHg 79%
03:00 +15°C° 0 mm 1 mps 749 mmHg 78%
04:00 +16°C° 0 mm 1 mps 749 mmHg 77%
05:00 +18°C° 0 mm 1 mps 749 mmHg 75%
06:00 +20°C° 0 mm 1 mps 749 mmHg 67%
07:00 +22°C° 0 mm 1 mps 750 mmHg 60%
08:00 +24°C° 0 mm 1 mps 750 mmHg 52%
09:00 +25°C° 0 mm 2 mps 750 mmHg 47%
10:00 +26°C° 0 mm 2 mps 749 mmHg 42%
11:00 +28°C° 0 mm 2 mps 749 mmHg 37%
12:00 +28°C° 0 mm 3 mps 749 mmHg 37%
13:00 +29°C° 0 mm 3 mps 749 mmHg 36%
14:00 +29°C° 0 mm 3 mps 749 mmHg 35%
15:00 +29°C° 0 mm 3 mps 748 mmHg 38%
16:00 +29°C° 0 mm 3 mps 748 mmHg 41%
17:00 +28°C° 0 mm 3 mps 748 mmHg 44%
18:00 +26°C° 0 mm 2 mps 748 mmHg 54%
19:00 +24°C° 0 mm 2 mps 748 mmHg 63%
20:00 +21°C° 0 mm 2 mps 748 mmHg 73%
21:00 +20°C° 0 mm 2 mps 748 mmHg 77%
22:00 +19°C° 0 mm 2 mps 748 mmHg 80%
23:00 +17°C° 0 mm 2 mps 748 mmHg 83%

19 June, Saturday

Time Temperature Precipitation Wind Pressure Humidity
00:00 +17°C° 0 mm 2 mps 748 mmHg 86%
01:00 +16°C° 0 mm 2 mps 749 mmHg 89%
02:00 +16°C° 0 mm 2 mps 749 mmHg 91%
03:00 +16°C° 0 mm 2 mps 749 mmHg 89%
04:00 +17°C° 0 mm 2 mps 749 mmHg 87%
05:00 +17°C° 0 mm 2 mps 749 mmHg 85%
06:00 +19°C° 0 mm 2 mps 749 mmHg 75%
07:00 +21°C° 0 mm 2 mps 749 mmHg 66%
08:00 +24°C° 0 mm 3 mps 749 mmHg 56%
09:00 +26°C° 0 mm 3 mps 749 mmHg 51%
10:00 +27°C° 0 mm 3 mps 749 mmHg 46%
11:00 +28°C° 0 mm 3 mps 749 mmHg 42%
12:00 +29°C° 0 mm 3 mps 749 mmHg 39%
13:00 +30°C° 0 mm 3 mps 748 mmHg 37%
14:00 +30°C° 0 mm 3 mps 748 mmHg 35%
15:00 +30°C° 0 mm 2 mps 748 mmHg 38%
16:00 +30°C° 0 mm 2 mps 748 mmHg 40%
17:00 +29°C° 0 mm 2 mps 747 mmHg 42%
18:00 +27°C° 0 mm 2 mps 747 mmHg 51%
19:00 +25°C° 0 mm 2 mps 747 mmHg 60%
20:00 +23°C° 0 mm 1 mps 747 mmHg 69%
21:00 +22°C° 0 mm 1 mps 747 mmHg 72%
22:00 +20°C° 0 mm 1 mps 748 mmHg 75%
23:00 +19°C° 0 mm 1 mps 748 mmHg 78%

20 June, Sunday

Time Temperature Precipitation Wind Pressure Humidity
00:00 +19°C° 0 mm 1 mps 748 mmHg 82%
01:00 +18°C° 0 mm 1 mps 748 mmHg 85%
02:00 +17°C° 0 mm 2 mps 748 mmHg 89%
03:00 +19°C° 0 mm 1 mps 748 mmHg 87%
04:00 +19°C° 0 mm 1 mps 748 mmHg 86%
05:00 +20°C° 0 mm 1 mps 748 mmHg 85%
06:00 +21°C° 0 mm 2 mps 748 mmHg 76%
07:00 +24°C° 0 mm 2 mps 748 mmHg 68%
08:00 +26°C° 0 mm 2 mps 748 mmHg 59%
09:00 +27°C° 0 mm 2 mps 748 mmHg 53%
10:00 +28°C° 0 mm 3 mps 748 mmHg 47%
11:00 +29°C° 0 mm 3 mps 747 mmHg 41%
12:00 +30°C° 0 mm 3 mps 747 mmHg 39%
13:00 +30°C° 0 mm 3 mps 747 mmHg 37%
14:00 +31°C° 0 mm 3 mps 747 mmHg 35%
15:00 +31°C° 0 mm 3 mps 746 mmHg 38%
16:00 +30°C° 0 mm 2 mps 746 mmHg 40%
17:00 +30°C° 0 mm 2 mps 746 mmHg 42%
18:00 +28°C° 0 mm 2 mps 746 mmHg 52%
19:00 +26°C° 0 mm 2 mps 746 mmHg 62%
20:00 +23°C° 0 mm 1 mps 746 mmHg 71%
21:00 +22°C° 0 mm 1 mps 746 mmHg 75%
22:00 +21°C° 0 mm 1 mps 746 mmHg 78%
23:00 +20°C° 0 mm 1 mps 746 mmHg 81%
Show more